User: anonymous   Login
Location: Zapote
(9.9191°N, 84.0597°W)
Time: 07:12:17
(UTC-06:00)
Language:

Oscar 19 - Orbit

View from above orbital plane
View from above orbital plane
View from above satellite
View from above satellite

Ground track
Ground track

The orbit data is extracted from the following two-line orbital elements,

1 20442U 90005G   21109.83487415  .00000036  00000-0  29907-4 0  9999
2 20442  98.7357  64.7858 0011362 339.0256  21.0460 14.32982995632435
Epoch (UTC): 19 April 2021 20:02:13
Eccentricity: 0.0011362
inclination: 98.7357°
perigee height: 773 km
apogee height: 790 km
right ascension of ascending node: 64.7858°
argument of perigee: 339.0256°
revolutions per day: 14.32982995
mean anomaly at epoch: 21.0460°
orbit number at epoch: 63243

The dashed part of the orbit path shows where the satellite is in the earth's shadow,  

DLR